User: anonymous
Location: Unspecified
(0.0000°N, 0.0000°E)
Time: 10:20:06
(UTC+02:00)
Language:

Cosmos 773 Rocket - Orbit

View from above orbital plane
View from above orbital plane
View from above satellite
View from above satellite

Ground track
Ground track

The orbit data is extracted from the following two-line orbital elements,

1 08344U 75094B   14265.14692648  .00000200  00000-0  73354-4 0  5738
2 08344 074.0587 166.2164 0022780 316.1536 195.3761 14.38789877 41999
Epoch (UTC): 22 September 2014 03:31:34
Eccentricity: 0.0022780
inclination: 74.0587°
perigee height: 746 km
apogee height: 779 km
right ascension of ascending node: 166.2164°
argument of perigee: 316.1536°
revolutions per day: 14.38789877
mean anomaly at epoch: 195.3761°
orbit number at epoch: 4199

The dashed part of the orbit path shows where the satellite is in the earth's shadow,  

DLR